Hourly Data Report for October 27, 2013

All times are specified in Local Standard Time (LST). Add 1 hour to adjust for Daylight Saving Time where and when it is observed.

GRISE FIORD CLIMATE
NUNAVUT

76°25'22.040" N
82°54'08.020" W
44.50 m
2402351
71971
NGC

Download Data

Hourly Data (October 2013)
Hourly Data Report for October 27, 2013
Temp Definition
°C
Dew Point Temp Definition
°C
Rel Hum Definition
%
Wind Dir Definition
10's deg

Wind Spd Definition
km/h
Visibility Definition
km
Stn Press Definition
kPa
Hmdx Definition


Wind Chill Definition


Weather Definition


TIME
00:00 -13.6 -15.1 88 10 2   99.63   -15 LegendNANA
01:00 -13.9 -15.0 91 24 20   99.61   -23 LegendNANA
02:00 -14.5 -16.0 88 24 17   99.62   -23 LegendNANA
03:00 -14.9 -16.6 87 23 6   99.59   -19 LegendNANA
04:00 -15.8 -18.7 78 5 13   99.58   -23 LegendNANA
05:00 -15.3 -18.8 75 5 9   99.58   -21 LegendNANA
06:00 -15.7 -19.8 71 4 6   99.58   -20 LegendNANA
07:00 -16.1 -20.3 70 8 7   99.59   -21 LegendNANA
08:00 -16.7 -19.7 78 13 2   99.59   -18 LegendNANA
09:00 -16.4 -19.7 76 8 2   99.61   -18 LegendNANA
10:00 -16.2 -20.8 68 8 9   99.65   -22 LegendNANA
11:00 -16.1 -21.4 64 8 9   99.66   -22 LegendNANA
12:00 -16.5 -21.6 65   0   99.69     LegendNANA
13:00 -16.6 -21.6 65 7 22   99.73   -27 LegendNANA
14:00 -16.7 -21.5 66 8 19   99.78   -26 LegendNANA
15:00 -16.5 -21.6 65 17 6   99.84   -21 LegendNANA
16:00 -19.1 -23.1 71 11 6   99.89   -24 LegendNANA
17:00 -17.2 -20.8 74 14 7   99.96   -22 LegendNANA
18:00 -16.4 -21.1 67 28 4   100.01   -19 LegendNANA
19:00 -15.9 -21.3 63 16 6   100.07   -20 LegendNANA
20:00 -17.0 -21.9 66 30 6   100.14   -22 LegendNANA
21:00 -16.6 -21.0 69 12 7   100.17   -22 LegendNANA
22:00 -16.0 -20.7 67 13 9   100.21   -22 LegendNANA
23:00 -16.9 -21.0 70 14 4   100.27   -20 LegendNANA

Notes on Data Quality.

Legend

  • E = Estimated
  • M = Missing
  • NA = Not Available
  • ‡ = Partner data that is not subject to review by the National Climate Archives
Date modified: